owner,sensor,date,latitude,longitude,air_temperature,qcFlag 
COMPS,ioos:station:USF.COMPS:SHP:1,2009-03-01T00:00:00Z,30.0600,-84.2910,18.0,1111122 
COMPS,ioos:station:USF.COMPS:SHP:1,2009-03-01T00:06:00Z,30.0600,-84.2910,18.05,1111122 
COMPS,ioos:station:USF.COMPS:SHP:1,2009-03-01T00:12:00Z,30.0600,-84.2910,18.41,1111122 
COMPS,ioos:station:USF.COMPS:SHP:1,2009-03-01T00:18:00Z,30.0600,-84.2910,18.5,1111122 
COMPS,ioos:station:USF.COMPS:SHP:1,2009-03-01T00:24:00Z,30.0600,-84.2910,18.59,1111122 
COMPS,ioos:station:USF.COMPS:SHP:1,2009-03-01T00:30:00Z,30.0600,-84.2910,18.58,1111122 
COMPS,ioos:station:USF.COMPS:SHP:1,2009-03-01T00:36:00Z,30.0600,-84.2910,18.51,1111122 
COMPS,ioos:station:USF.COMPS:SHP:1,2009-03-01T00:42:00Z,30.0600,-84.2910,18.43,1111122 
COMPS,ioos:station:USF.COMPS:SHP:1,2009-03-01T00:48:00Z,30.0600,-84.2910,18.19,1111122 
COMPS,ioos:station:USF.COMPS:SHP:1,2009-03-01T00:54:00Z,30.0600,-84.2910,18.14,1111122 
COMPS,ioos:station:USF.COMPS:SHP:1,2009-03-01T01:00:00Z,30.0600,-84.2910,18.32,1111122 
COMPS,ioos:station:USF.COMPS:SHP:1,2009-03-01T01:06:00Z,30.0600,-84.2910,18.41,1111122 
COMPS,ioos:station:USF.COMPS:SHP:1,2009-03-01T01:12:00Z,30.0600,-84.2910,18.44,1111122 
COMPS,ioos:station:USF.COMPS:SHP:1,2009-03-01T01:18:00Z,30.0600,-84.2910,18.45,1111122 
COMPS,ioos:station:USF.COMPS:SHP:1,2009-03-01T01:24:00Z,30.0600,-84.2910,18.65,1111122 
COMPS,ioos:station:USF.COMPS:SHP:1,2009-03-01T01:30:00Z,30.0600,-84.2910,18.78,1111122 
COMPS,ioos:station:USF.COMPS:SHP:1,2009-03-01T01:36:00Z,30.0600,-84.2910,18.53,1111122 
COMPS,ioos:station:USF.COMPS:SHP:1,2009-03-01T01:42:00Z,30.0600,-84.2910,18.56,1111122 
COMPS,ioos:station:USF.COMPS:SHP:1,2009-03-01T01:48:00Z,30.0600,-84.2910,18.31,1111122 
COMPS,ioos:station:USF.COMPS:SHP:1,2009-03-01T01:54:00Z,30.0600,-84.2910,18.32,1111122 
COMPS,ioos:station:USF.COMPS:SHP:1,2009-03-01T02:00:00Z,30.0600,-84.2910,18.15,1111122 
COMPS,ioos:station:USF.COMPS:SHP:1,2009-03-01T02:06:00Z,30.0600,-84.2910,18.13,1111122 
COMPS,ioos:station:USF.COMPS:SHP:1,2009-03-01T02:12:00Z,30.0600,-84.2910,18.1,1111122 
COMPS,ioos:station:USF.COMPS:SHP:1,2009-03-01T02:18:00Z,30.0600,-84.2910,18.21,1111122 
COMPS,ioos:station:USF.COMPS:SHP:1,2009-03-01T02:24:00Z,30.0600,-84.2910,18.84,1111122 
COMPS,ioos:station:USF.COMPS:SHP:1,2009-03-01T02:30:00Z,30.0600,-84.2910,19.08,1111122 
COMPS,ioos:station:USF.COMPS:SHP:1,2009-03-01T02:36:00Z,30.0600,-84.2910,19.26,1111122 
COMPS,ioos:station:USF.COMPS:SHP:1,2009-03-01T02:42:00Z,30.0600,-84.2910,19.73,1111122 
COMPS,ioos:station:USF.COMPS:SHP:1,2009-03-01T02:48:00Z,30.0600,-84.2910,19.42,1111122 
COMPS,ioos:station:USF.COMPS:SHP:1,2009-03-01T02:54:00Z,30.0600,-84.2910,19.4,1111122 
COMPS,ioos:station:USF.COMPS:SHP:1,2009-03-01T03:00:00Z,30.0600,-84.2910,19.26,1111122 
COMPS,ioos:station:USF.COMPS:SHP:1,2009-03-01T03:06:00Z,30.0600,-84.2910,19.51,1111122 
COMPS,ioos:station:USF.COMPS:SHP:1,2009-03-01T03:12:00Z,30.0600,-84.2910,19.55,1111122 
COMPS,ioos:station:USF.COMPS:SHP:1,2009-03-01T03:18:00Z,30.0600,-84.2910,19.23,1111122 
COMPS,ioos:station:USF.COMPS:SHP:1,2009-03-01T03:24:00Z,30.0600,-84.2910,18.95,1111122 
COMPS,ioos:station:USF.COMPS:SHP:1,2009-03-01T03:30:00Z,30.0600,-84.2910,19.02,1111122 
COMPS,ioos:station:USF.COMPS:SHP:1,2009-03-01T03:36:00Z,30.0600,-84.2910,19.03,1111122 
COMPS,ioos:station:USF.COMPS:SHP:1,2009-03-01T03:42:00Z,30.0600,-84.2910,19.13,1111122 
COMPS,ioos:station:USF.COMPS:SHP:1,2009-03-01T03:48:00Z,30.0600,-84.2910,19.21,1111122 
COMPS,ioos:station:USF.COMPS:SHP:1,2009-03-01T03:54:00Z,30.0600,-84.2910,19.34,1111122 
COMPS,ioos:station:USF.COMPS:SHP:1,2009-03-01T04:00:00Z,30.0600,-84.2910,19.44,1111122 
COMPS,ioos:station:USF.COMPS:SHP:1,2009-03-01T04:06:00Z,30.0600,-84.2910,19.25,1111122 
COMPS,ioos:station:USF.COMPS:SHP:1,2009-03-01T04:12:00Z,30.0600,-84.2910,19.21,1111122 
COMPS,ioos:station:USF.COMPS:SHP:1,2009-03-01T04:18:00Z,30.0600,-84.2910,19.11,1111122 
COMPS,ioos:station:USF.COMPS:SHP:1,2009-03-01T04:24:00Z,30.0600,-84.2910,19.12,1111122 
COMPS,ioos:station:USF.COMPS:SHP:1,2009-03-01T04:30:00Z,30.0600,-84.2910,18.94,1111122 
COMPS,ioos:station:USF.COMPS:SHP:1,2009-03-01T04:36:00Z,30.0600,-84.2910,18.99,1111122 
COMPS,ioos:station:USF.COMPS:SHP:1,2009-03-01T04:42:00Z,30.0600,-84.2910,19.06,1111122 
COMPS,ioos:station:USF.COMPS:SHP:1,2009-03-01T04:48:00Z,30.0600,-84.2910,19.13,1111122 
COMPS,ioos:station:USF.COMPS:SHP:1,2009-03-01T04:54:00Z,30.0600,-84.2910,19.09,1111122 
COMPS,ioos:station:USF.COMPS:SHP:1,2009-03-01T05:00:00Z,30.0600,-84.2910,19.17,1111122 
COMPS,ioos:station:USF.COMPS:SHP:1,2009-03-01T05:06:00Z,30.0600,-84.2910,19.34,1111122 
COMPS,ioos:station:USF.COMPS:SHP:1,2009-03-01T05:12:00Z,30.0600,-84.2910,19.41,1111122 
COMPS,ioos:station:USF.COMPS:SHP:1,2009-03-01T05:18:00Z,30.0600,-84.2910,19.31,1111122 
COMPS,ioos:station:USF.COMPS:SHP:1,2009-03-01T05:24:00Z,30.0600,-84.2910,19.19,1111122 
COMPS,ioos:station:USF.COMPS:SHP:1,2009-03-01T05:30:00Z,30.0600,-84.2910,19.05,1111122 
COMPS,ioos:station:USF.COMPS:SHP:1,2009-03-01T05:36:00Z,30.0600,-84.2910,19.18,1111122 
COMPS,ioos:station:USF.COMPS:SHP:1,2009-03-01T05:42:00Z,30.0600,-84.2910,19.07,1111122 
COMPS,ioos:station:USF.COMPS:SHP:1,2009-03-01T05:48:00Z,30.0600,-84.2910,19.17,1111122 
COMPS,ioos:station:USF.COMPS:SHP:1,2009-03-01T05:54:00Z,30.0600,-84.2910,19.21,1111122 
COMPS,ioos:station:USF.COMPS:SHP:1,2009-03-01T06:00:00Z,30.0600,-84.2910,19.28,1111122 
COMPS,ioos:station:USF.COMPS:SHP:1,2009-03-01T06:06:00Z,30.0600,-84.2910,19.16,1111122 
COMPS,ioos:station:USF.COMPS:SHP:1,2009-03-01T06:12:00Z,30.0600,-84.2910,18.97,1111122 
COMPS,ioos:station:USF.COMPS:SHP:1,2009-03-01T06:18:00Z,30.0600,-84.2910,18.95,1111122 
COMPS,ioos:station:USF.COMPS:SHP:1,2009-03-01T06:24:00Z,30.0600,-84.2910,19.06,1111122 
COMPS,ioos:station:USF.COMPS:SHP:1,2009-03-01T06:30:00Z,30.0600,-84.2910,19.14,1111122 
COMPS,ioos:station:USF.COMPS:SHP:1,2009-03-01T06:36:00Z,30.0600,-84.2910,19.01,1111122 
COMPS,ioos:station:USF.COMPS:SHP:1,2009-03-01T06:42:00Z,30.0600,-84.2910,18.96,1111122 
COMPS,ioos:station:USF.COMPS:SHP:1,2009-03-01T06:48:00Z,30.0600,-84.2910,18.97,1111122 
COMPS,ioos:station:USF.COMPS:SHP:1,2009-03-01T06:54:00Z,30.0600,-84.2910,19.02,1111122 
COMPS,ioos:station:USF.COMPS:SHP:1,2009-03-01T07:00:00Z,30.0600,-84.2910,18.82,1111122 
COMPS,ioos:station:USF.COMPS:SHP:1,2009-03-01T07:06:00Z,30.0600,-84.2910,18.67,1111122 
COMPS,ioos:station:USF.COMPS:SHP:1,2009-03-01T07:12:00Z,30.0600,-84.2910,18.59,1111122 
COMPS,ioos:station:USF.COMPS:SHP:1,2009-03-01T07:18:00Z,30.0600,-84.2910,18.67,1111122 
COMPS,ioos:station:USF.COMPS:SHP:1,2009-03-01T07:24:00Z,30.0600,-84.2910,18.54,1111122 
COMPS,ioos:station:USF.COMPS:SHP:1,2009-03-01T07:30:00Z,30.0600,-84.2910,18.66,1111122 
COMPS,ioos:station:USF.COMPS:SHP:1,2009-03-01T07:36:00Z,30.0600,-84.2910,18.61,1111122 
COMPS,ioos:station:USF.COMPS:SHP:1,2009-03-01T07:42:00Z,30.0600,-84.2910,18.69,1111122 
COMPS,ioos:station:USF.COMPS:SHP:1,2009-03-01T07:48:00Z,30.0600,-84.2910,18.66,1111122 
COMPS,ioos:station:USF.COMPS:SHP:1,2009-03-01T07:54:00Z,30.0600,-84.2910,18.68,1111122 
COMPS,ioos:station:USF.COMPS:SHP:1,2009-03-01T08:00:00Z,30.0600,-84.2910,18.53,1111122 
COMPS,ioos:station:USF.COMPS:SHP:1,2009-03-01T08:06:00Z,30.0600,-84.2910,17.65,1111122 
COMPS,ioos:station:USF.COMPS:SHP:1,2009-03-01T08:12:00Z,30.0600,-84.2910,17.15,1111122 
COMPS,ioos:station:USF.COMPS:SHP:1,2009-03-01T08:18:00Z,30.0600,-84.2910,16.81,1111122 
COMPS,ioos:station:USF.COMPS:SHP:1,2009-03-01T08:24:00Z,30.0600,-84.2910,16.51,1111122 
COMPS,ioos:station:USF.COMPS:SHP:1,2009-03-01T08:30:00Z,30.0600,-84.2910,16.0,1111122 
COMPS,ioos:station:USF.COMPS:SHP:1,2009-03-01T08:36:00Z,30.0600,-84.2910,15.19,1111122 
COMPS,ioos:station:USF.COMPS:SHP:1,2009-03-01T08:42:00Z,30.0600,-84.2910,14.44,1111122 
COMPS,ioos:station:USF.COMPS:SHP:1,2009-03-01T08:48:00Z,30.0600,-84.2910,13.98,1111122 
COMPS,ioos:station:USF.COMPS:SHP:1,2009-03-01T08:54:00Z,30.0600,-84.2910,13.61,1111122 
COMPS,ioos:station:USF.COMPS:SHP:1,2009-03-01T09:00:00Z,30.0600,-84.2910,13.5,1111122 
COMPS,ioos:station:USF.COMPS:SHP:1,2009-03-01T09:06:00Z,30.0600,-84.2910,13.19,1111122 
COMPS,ioos:station:USF.COMPS:SHP:1,2009-03-01T09:12:00Z,30.0600,-84.2910,12.81,1111122 
COMPS,ioos:station:USF.COMPS:SHP:1,2009-03-01T09:18:00Z,30.0600,-84.2910,12.5,1111122 
COMPS,ioos:station:USF.COMPS:SHP:1,2009-03-01T09:24:00Z,30.0600,-84.2910,12.38,1111122 
COMPS,ioos:station:USF.COMPS:SHP:1,2009-03-01T09:30:00Z,30.0600,-84.2910,12.18,1111122 
COMPS,ioos:station:USF.COMPS:SHP:1,2009-03-01T09:36:00Z,30.0600,-84.2910,12.14,1111122 
COMPS,ioos:station:USF.COMPS:SHP:1,2009-03-01T09:42:00Z,30.0600,-84.2910,12.01,1111122 
COMPS,ioos:station:USF.COMPS:SHP:1,2009-03-01T09:48:00Z,30.0600,-84.2910,11.93,1111122 
COMPS,ioos:station:USF.COMPS:SHP:1,2009-03-01T09:54:00Z,30.0600,-84.2910,11.71,1111122 
COMPS,ioos:station:USF.COMPS:SHP:1,2009-03-01T10:00:00Z,30.0600,-84.2910,11.45,1111122 
COMPS,ioos:station:USF.COMPS:SHP:1,2009-03-01T10:06:00Z,30.0600,-84.2910,11.34,1111122 
COMPS,ioos:station:USF.COMPS:SHP:1,2009-03-01T10:12:00Z,30.0600,-84.2910,11.39,1111122 
COMPS,ioos:station:USF.COMPS:SHP:1,2009-03-01T10:18:00Z,30.0600,-84.2910,11.17,1111122 
COMPS,ioos:station:USF.COMPS:SHP:1,2009-03-01T10:24:00Z,30.0600,-84.2910,10.98,1111122 
COMPS,ioos:station:USF.COMPS:SHP:1,2009-03-01T10:30:00Z,30.0600,-84.2910,11.01,1111122 
COMPS,ioos:station:USF.COMPS:SHP:1,2009-03-01T10:36:00Z,30.0600,-84.2910,11.15,1111122 
COMPS,ioos:station:USF.COMPS:SHP:1,2009-03-01T10:42:00Z,30.0600,-84.2910,10.81,1111122 
COMPS,ioos:station:USF.COMPS:SHP:1,2009-03-01T10:48:00Z,30.0600,-84.2910,10.54,1111122 
COMPS,ioos:station:USF.COMPS:SHP:1,2009-03-01T10:54:00Z,30.0600,-84.2910,10.12,1111122 
COMPS,ioos:station:USF.COMPS:SHP:1,2009-03-01T11:00:00Z,30.0600,-84.2910,9.91,1111122 
COMPS,ioos:station:USF.COMPS:SHP:1,2009-03-01T11:06:00Z,30.0600,-84.2910,9.21,1111122 
COMPS,ioos:station:USF.COMPS:SHP:1,2009-03-01T11:12:00Z,30.0600,-84.2910,8.46,1111122 
COMPS,ioos:station:USF.COMPS:SHP:1,2009-03-01T11:18:00Z,30.0600,-84.2910,8.46,1111122 
COMPS,ioos:station:USF.COMPS:SHP:1,2009-03-01T11:24:00Z,30.0600,-84.2910,8.43,1111122 
COMPS,ioos:station:USF.COMPS:SHP:1,2009-03-01T11:30:00Z,30.0600,-84.2910,8.18,1111122 
COMPS,ioos:station:USF.COMPS:SHP:1,2009-03-01T11:36:00Z,30.0600,-84.2910,8.0,1111122 
COMPS,ioos:station:USF.COMPS:SHP:1,2009-03-01T11:42:00Z,30.0600,-84.2910,7.93,1111122 
COMPS,ioos:station:USF.COMPS:SHP:1,2009-03-01T11:48:00Z,30.0600,-84.2910,7.63,1111122 
COMPS,ioos:station:USF.COMPS:SHP:1,2009-03-01T11:54:00Z,30.0600,-84.2910,7.45,1111122 
COMPS,ioos:station:USF.COMPS:SHP:1,2009-03-01T12:00:00Z,30.0600,-84.2910,7.39,1111122 
COMPS,ioos:station:USF.COMPS:SHP:1,2009-03-01T12:06:00Z,30.0600,-84.2910,7.27,1111122 
COMPS,ioos:station:USF.COMPS:SHP:1,2009-03-01T12:12:00Z,30.0600,-84.2910,6.98,1111122 
COMPS,ioos:station:USF.COMPS:SHP:1,2009-03-01T12:18:00Z,30.0600,-84.2910,7.01,1111122 
COMPS,ioos:station:USF.COMPS:SHP:1,2009-03-01T12:24:00Z,30.0600,-84.2910,6.66,1111122 
COMPS,ioos:station:USF.COMPS:SHP:1,2009-03-01T12:30:00Z,30.0600,-84.2910,6.51,1111122 
COMPS,ioos:station:USF.COMPS:SHP:1,2009-03-01T12:36:00Z,30.0600,-84.2910,6.37,1111122 
COMPS,ioos:station:USF.COMPS:SHP:1,2009-03-01T12:42:00Z,30.0600,-84.2910,6.27,1111122 
COMPS,ioos:station:USF.COMPS:SHP:1,2009-03-01T12:48:00Z,30.0600,-84.2910,6.06,1111122 
COMPS,ioos:station:USF.COMPS:SHP:1,2009-03-01T12:54:00Z,30.0600,-84.2910,5.9,1111122 
COMPS,ioos:station:USF.COMPS:SHP:1,2009-03-01T13:00:00Z,30.0600,-84.2910,5.6,1111122 
COMPS,ioos:station:USF.COMPS:SHP:1,2009-03-01T13:06:00Z,30.0600,-84.2910,5.45,1111122 
COMPS,ioos:station:USF.COMPS:SHP:1,2009-03-01T13:12:00Z,30.0600,-84.2910,5.16,1111122 
COMPS,ioos:station:USF.COMPS:SHP:1,2009-03-01T13:18:00Z,30.0600,-84.2910,5.09,1111122 
COMPS,ioos:station:USF.COMPS:SHP:1,2009-03-01T13:24:00Z,30.0600,-84.2910,5.14,1111122 
COMPS,ioos:station:USF.COMPS:SHP:1,2009-03-01T13:30:00Z,30.0600,-84.2910,5.21,1111122 
COMPS,ioos:station:USF.COMPS:SHP:1,2009-03-01T13:36:00Z,30.0600,-84.2910,5.14,1111122 
COMPS,ioos:station:USF.COMPS:SHP:1,2009-03-01T13:42:00Z,30.0600,-84.2910,5.12,1111122 
COMPS,ioos:station:USF.COMPS:SHP:1,2009-03-01T13:48:00Z,30.0600,-84.2910,5.13,1111122 
COMPS,ioos:station:USF.COMPS:SHP:1,2009-03-01T13:54:00Z,30.0600,-84.2910,5.44,1111122 
COMPS,ioos:station:USF.COMPS:SHP:1,2009-03-01T14:00:00Z,30.0600,-84.2910,5.36,1111122 
COMPS,ioos:station:USF.COMPS:SHP:1,2009-03-01T14:06:00Z,30.0600,-84.2910,5.47,1111122 
COMPS,ioos:station:USF.COMPS:SHP:1,2009-03-01T14:12:00Z,30.0600,-84.2910,5.38,1111122 
COMPS,ioos:station:USF.COMPS:SHP:1,2009-03-01T14:18:00Z,30.0600,-84.2910,5.52,1111122 
COMPS,ioos:station:USF.COMPS:SHP:1,2009-03-01T14:24:00Z,30.0600,-84.2910,5.43,1111122 
COMPS,ioos:station:USF.COMPS:SHP:1,2009-03-01T14:30:00Z,30.0600,-84.2910,5.29,1111122 
COMPS,ioos:station:USF.COMPS:SHP:1,2009-03-01T14:36:00Z,30.0600,-84.2910,5.51,1111122 
COMPS,ioos:station:USF.COMPS:SHP:1,2009-03-01T14:42:00Z,30.0600,-84.2910,5.59,1111122 
COMPS,ioos:station:USF.COMPS:SHP:1,2009-03-01T14:48:00Z,30.0600,-84.2910,5.65,1111122 
COMPS,ioos:station:USF.COMPS:SHP:1,2009-03-01T14:54:00Z,30.0600,-84.2910,5.7,1111122 
COMPS,ioos:station:USF.COMPS:SHP:1,2009-03-01T15:00:00Z,30.0600,-84.2910,5.86,1111122 
COMPS,ioos:station:USF.COMPS:SHP:1,2009-03-01T15:06:00Z,30.0600,-84.2910,6.12,1111122 
COMPS,ioos:station:USF.COMPS:SHP:1,2009-03-01T15:12:00Z,30.0600,-84.2910,6.55,1111122 
COMPS,ioos:station:USF.COMPS:SHP:1,2009-03-01T15:18:00Z,30.0600,-84.2910,6.67,1111122 
COMPS,ioos:station:USF.COMPS:SHP:1,2009-03-01T15:24:00Z,30.0600,-84.2910,6.49,1111122 
COMPS,ioos:station:USF.COMPS:SHP:1,2009-03-01T15:30:00Z,30.0600,-84.2910,6.51,1111122 
COMPS,ioos:station:USF.COMPS:SHP:1,2009-03-01T15:36:00Z,30.0600,-84.2910,7.09,1111122 
COMPS,ioos:station:USF.COMPS:SHP:1,2009-03-01T15:42:00Z,30.0600,-84.2910,6.93,1111122 
COMPS,ioos:station:USF.COMPS:SHP:1,2009-03-01T15:48:00Z,30.0600,-84.2910,7.06,1111122 
COMPS,ioos:station:USF.COMPS:SHP:1,2009-03-01T15:54:00Z,30.0600,-84.2910,6.88,1111122 
COMPS,ioos:station:USF.COMPS:SHP:1,2009-03-01T16:00:00Z,30.0600,-84.2910,6.75,1111122 
COMPS,ioos:station:USF.COMPS:SHP:1,2009-03-01T16:06:00Z,30.0600,-84.2910,6.93,1111122 
COMPS,ioos:station:USF.COMPS:SHP:1,2009-03-01T16:12:00Z,30.0600,-84.2910,6.95,1111122 
COMPS,ioos:station:USF.COMPS:SHP:1,2009-03-01T16:18:00Z,30.0600,-84.2910,6.96,1111122 
COMPS,ioos:station:USF.COMPS:SHP:1,2009-03-01T16:24:00Z,30.0600,-84.2910,7.31,1111122 
COMPS,ioos:station:USF.COMPS:SHP:1,2009-03-01T16:30:00Z,30.0600,-84.2910,7.6,1111122 
COMPS,ioos:station:USF.COMPS:SHP:1,2009-03-01T16:36:00Z,30.0600,-84.2910,6.98,1111122 
COMPS,ioos:station:USF.COMPS:SHP:1,2009-03-01T16:42:00Z,30.0600,-84.2910,6.82,1111122 
COMPS,ioos:station:USF.COMPS:SHP:1,2009-03-01T16:48:00Z,30.0600,-84.2910,7.43,1111122 
COMPS,ioos:station:USF.COMPS:SHP:1,2009-03-01T16:54:00Z,30.0600,-84.2910,7.76,1111122 
COMPS,ioos:station:USF.COMPS:SHP:1,2009-03-01T17:00:00Z,30.0600,-84.2910,7.44,1111122 
COMPS,ioos:station:USF.COMPS:SHP:1,2009-03-01T17:06:00Z,30.0600,-84.2910,7.02,1111122 
COMPS,ioos:station:USF.COMPS:SHP:1,2009-03-01T17:12:00Z,30.0600,-84.2910,7.22,1111122 
COMPS,ioos:station:USF.COMPS:SHP:1,2009-03-01T17:18:00Z,30.0600,-84.2910,7.46,1111122 
COMPS,ioos:station:USF.COMPS:SHP:1,2009-03-01T17:24:00Z,30.0600,-84.2910,7.53,1111122 
COMPS,ioos:station:USF.COMPS:SHP:1,2009-03-01T17:30:00Z,30.0600,-84.2910,7.85,1111122 
COMPS,ioos:station:USF.COMPS:SHP:1,2009-03-01T17:36:00Z,30.0600,-84.2910,7.27,1111122 
COMPS,ioos:station:USF.COMPS:SHP:1,2009-03-01T17:42:00Z,30.0600,-84.2910,7.8,1111122 
COMPS,ioos:station:USF.COMPS:SHP:1,2009-03-01T17:48:00Z,30.0600,-84.2910,7.77,1111122 
COMPS,ioos:station:USF.COMPS:SHP:1,2009-03-01T17:54:00Z,30.0600,-84.2910,7.43,1111122 
COMPS,ioos:station:USF.COMPS:SHP:1,2009-03-01T18:00:00Z,30.0600,-84.2910,7.47,1111122 
COMPS,ioos:station:USF.COMPS:SHP:1,2009-03-01T18:06:00Z,30.0600,-84.2910,7.51,1111122 
COMPS,ioos:station:USF.COMPS:SHP:1,2009-03-01T18:12:00Z,30.0600,-84.2910,7.65,1111122 
COMPS,ioos:station:USF.COMPS:SHP:1,2009-03-01T18:18:00Z,30.0600,-84.2910,7.93,1111122 
COMPS,ioos:station:USF.COMPS:SHP:1,2009-03-01T18:24:00Z,30.0600,-84.2910,7.49,1111122 
COMPS,ioos:station:USF.COMPS:SHP:1,2009-03-01T18:30:00Z,30.0600,-84.2910,7.79,1111122 
COMPS,ioos:station:USF.COMPS:SHP:1,2009-03-01T18:36:00Z,30.0600,-84.2910,7.3,1111122 
COMPS,ioos:station:USF.COMPS:SHP:1,2009-03-01T18:42:00Z,30.0600,-84.2910,7.61,1111122 
COMPS,ioos:station:USF.COMPS:SHP:1,2009-03-01T18:48:00Z,30.0600,-84.2910,7.79,1111122 
COMPS,ioos:station:USF.COMPS:SHP:1,2009-03-01T18:54:00Z,30.0600,-84.2910,7.8,1111122 
COMPS,ioos:station:USF.COMPS:SHP:1,2009-03-01T19:00:00Z,30.0600,-84.2910,7.42,1111122 
COMPS,ioos:station:USF.COMPS:SHP:1,2009-03-01T19:06:00Z,30.0600,-84.2910,7.36,1111122 
COMPS,ioos:station:USF.COMPS:SHP:1,2009-03-01T19:12:00Z,30.0600,-84.2910,6.7,1111122 
COMPS,ioos:station:USF.COMPS:SHP:1,2009-03-01T19:18:00Z,30.0600,-84.2910,6.8,1111122 
COMPS,ioos:station:USF.COMPS:SHP:1,2009-03-01T19:24:00Z,30.0600,-84.2910,6.98,1111122 
COMPS,ioos:station:USF.COMPS:SHP:1,2009-03-01T19:30:00Z,30.0600,-84.2910,6.76,1111122 
COMPS,ioos:station:USF.COMPS:SHP:1,2009-03-01T19:36:00Z,30.0600,-84.2910,6.22,1111122 
COMPS,ioos:station:USF.COMPS:SHP:1,2009-03-01T19:42:00Z,30.0600,-84.2910,6.91,1111122 
COMPS,ioos:station:USF.COMPS:SHP:1,2009-03-01T19:48:00Z,30.0600,-84.2910,6.91,1111122 
COMPS,ioos:station:USF.COMPS:SHP:1,2009-03-01T19:54:00Z,30.0600,-84.2910,6.61,1111122 
COMPS,ioos:station:USF.COMPS:SHP:1,2009-03-01T20:00:00Z,30.0600,-84.2910,6.49,1111122 
COMPS,ioos:station:USF.COMPS:SHP:1,2009-03-01T20:06:00Z,30.0600,-84.2910,6.48,1111122 
COMPS,ioos:station:USF.COMPS:SHP:1,2009-03-01T20:12:00Z,30.0600,-84.2910,6.7,1111122 
COMPS,ioos:station:USF.COMPS:SHP:1,2009-03-01T20:18:00Z,30.0600,-84.2910,6.22,1111122 
COMPS,ioos:station:USF.COMPS:SHP:1,2009-03-01T20:24:00Z,30.0600,-84.2910,6.78,1111122 
COMPS,ioos:station:USF.COMPS:SHP:1,2009-03-01T20:30:00Z,30.0600,-84.2910,6.43,1111122 
COMPS,ioos:station:USF.COMPS:SHP:1,2009-03-01T20:36:00Z,30.0600,-84.2910,6.32,1111122 
COMPS,ioos:station:USF.COMPS:SHP:1,2009-03-01T20:42:00Z,30.0600,-84.2910,6.42,1111122 
COMPS,ioos:station:USF.COMPS:SHP:1,2009-03-01T20:48:00Z,30.0600,-84.2910,6.71,1111122 
COMPS,ioos:station:USF.COMPS:SHP:1,2009-03-01T20:54:00Z,30.0600,-84.2910,6.15,1111122 
COMPS,ioos:station:USF.COMPS:SHP:1,2009-03-01T21:00:00Z,30.0600,-84.2910,6.18,1111122 
COMPS,ioos:station:USF.COMPS:SHP:1,2009-03-01T21:06:00Z,30.0600,-84.2910,6.08,1111122 
COMPS,ioos:station:USF.COMPS:SHP:1,2009-03-01T21:12:00Z,30.0600,-84.2910,6.18,1111122 
COMPS,ioos:station:USF.COMPS:SHP:1,2009-03-01T21:18:00Z,30.0600,-84.2910,6.23,1111122 
COMPS,ioos:station:USF.COMPS:SHP:1,2009-03-01T21:24:00Z,30.0600,-84.2910,6.27,1111122 
COMPS,ioos:station:USF.COMPS:SHP:1,2009-03-01T21:30:00Z,30.0600,-84.2910,5.84,1111122 
COMPS,ioos:station:USF.COMPS:SHP:1,2009-03-01T21:36:00Z,30.0600,-84.2910,5.86,1111122 
COMPS,ioos:station:USF.COMPS:SHP:1,2009-03-01T21:42:00Z,30.0600,-84.2910,5.75,1111122 
COMPS,ioos:station:USF.COMPS:SHP:1,2009-03-01T21:48:00Z,30.0600,-84.2910,5.78,1111122 
COMPS,ioos:station:USF.COMPS:SHP:1,2009-03-01T21:54:00Z,30.0600,-84.2910,5.81,1111122 
COMPS,ioos:station:USF.COMPS:SHP:1,2009-03-01T22:00:00Z,30.0600,-84.2910,5.69,1111122 
COMPS,ioos:station:USF.COMPS:SHP:1,2009-03-01T22:06:00Z,30.0600,-84.2910,5.6,1111122 
COMPS,ioos:station:USF.COMPS:SHP:1,2009-03-01T22:12:00Z,30.0600,-84.2910,5.58,1111122 
COMPS,ioos:station:USF.COMPS:SHP:1,2009-03-01T22:18:00Z,30.0600,-84.2910,5.6,1111122 
COMPS,ioos:station:USF.COMPS:SHP:1,2009-03-01T22:24:00Z,30.0600,-84.2910,5.55,1111122 
COMPS,ioos:station:USF.COMPS:SHP:1,2009-03-01T22:30:00Z,30.0600,-84.2910,5.56,1111122 
COMPS,ioos:station:USF.COMPS:SHP:1,2009-03-01T22:36:00Z,30.0600,-84.2910,5.6,1111122 
COMPS,ioos:station:USF.COMPS:SHP:1,2009-03-01T22:42:00Z,30.0600,-84.2910,5.7,1111122 
COMPS,ioos:station:USF.COMPS:SHP:1,2009-03-01T22:48:00Z,30.0600,-84.2910,5.52,1111122 
COMPS,ioos:station:USF.COMPS:SHP:1,2009-03-01T22:54:00Z,30.0600,-84.2910,5.54,1111122 
COMPS,ioos:station:USF.COMPS:SHP:1,2009-03-01T23:00:00Z,30.0600,-84.2910,5.55,1111122 
COMPS,ioos:station:USF.COMPS:SHP:1,2009-03-01T23:06:00Z,30.0600,-84.2910,5.7,1111122 
COMPS,ioos:station:USF.COMPS:SHP:1,2009-03-01T23:12:00Z,30.0600,-84.2910,5.65,1111122 
COMPS,ioos:station:USF.COMPS:SHP:1,2009-03-01T23:18:00Z,30.0600,-84.2910,5.46,1111122 
COMPS,ioos:station:USF.COMPS:SHP:1,2009-03-01T23:24:00Z,30.0600,-84.2910,5.49,1111122 
COMPS,ioos:station:USF.COMPS:SHP:1,2009-03-01T23:30:00Z,30.0600,-84.2910,5.59,1111122 
COMPS,ioos:station:USF.COMPS:SHP:1,2009-03-01T23:36:00Z,30.0600,-84.2910,5.54,1111122 
COMPS,ioos:station:USF.COMPS:SHP:1,2009-03-01T23:42:00Z,30.0600,-84.2910,5.47,1111122 
COMPS,ioos:station:USF.COMPS:SHP:1,2009-03-01T23:48:00Z,30.0600,-84.2910,5.34,1111122 
COMPS,ioos:station:USF.COMPS:SHP:1,2009-03-01T23:54:00Z,30.0600,-84.2910,5.41,1111122 
COMPS,ioos:station:USF.COMPS:SHP:1,2009-03-02T00:00:00Z,30.0600,-84.2910,5.37,1111122 
COMPS,ioos:station:USF.COMPS:SHP:1,2009-03-02T00:06:00Z,30.0600,-84.2910,5.22,1111122 
COMPS,ioos:station:USF.COMPS:SHP:1,2009-03-02T00:12:00Z,30.0600,-84.2910,5.09,1111122 
COMPS,ioos:station:USF.COMPS:SHP:1,2009-03-02T00:18:00Z,30.0600,-84.2910,5.19,1111122 
COMPS,ioos:station:USF.COMPS:SHP:1,2009-03-02T00:24:00Z,30.0600,-84.2910,5.17,1111122 
COMPS,ioos:station:USF.COMPS:SHP:1,2009-03-02T00:30:00Z,30.0600,-84.2910,5.09,1111122 
COMPS,ioos:station:USF.COMPS:SHP:1,2009-03-02T00:36:00Z,30.0600,-84.2910,5.11,1111122 
COMPS,ioos:station:USF.COMPS:SHP:1,2009-03-02T00:42:00Z,30.0600,-84.2910,5.12,1111122 
COMPS,ioos:station:USF.COMPS:SHP:1,2009-03-02T00:48:00Z,30.0600,-84.2910,5.22,1111122 
COMPS,ioos:station:USF.COMPS:SHP:1,2009-03-02T00:54:00Z,30.0600,-84.2910,5.12,1111122 
COMPS,ioos:station:USF.COMPS:SHP:1,2009-03-02T01:00:00Z,30.0600,-84.2910,5.12,1111122 
COMPS,ioos:station:USF.COMPS:SHP:1,2009-03-02T01:06:00Z,30.0600,-84.2910,5.15,1111122 
COMPS,ioos:station:USF.COMPS:SHP:1,2009-03-02T01:12:00Z,30.0600,-84.2910,5.24,1111122 
COMPS,ioos:station:USF.COMPS:SHP:1,2009-03-02T01:18:00Z,30.0600,-84.2910,5.16,1111122 
COMPS,ioos:station:USF.COMPS:SHP:1,2009-03-02T01:24:00Z,30.0600,-84.2910,5.15,1111122 
COMPS,ioos:station:USF.COMPS:SHP:1,2009-03-02T01:30:00Z,30.0600,-84.2910,5.21,1111122 
COMPS,ioos:station:USF.COMPS:SHP:1,2009-03-02T01:36:00Z,30.0600,-84.2910,5.34,1111122 
COMPS,ioos:station:USF.COMPS:SHP:1,2009-03-02T01:42:00Z,30.0600,-84.2910,5.2,1111122 
COMPS,ioos:station:USF.COMPS:SHP:1,2009-03-02T01:48:00Z,30.0600,-84.2910,5.13,1111122 
COMPS,ioos:station:USF.COMPS:SHP:1,2009-03-02T01:54:00Z,30.0600,-84.2910,5.16,1111122 
COMPS,ioos:station:USF.COMPS:SHP:1,2009-03-02T02:00:00Z,30.0600,-84.2910,5.34,1111122 
COMPS,ioos:station:USF.COMPS:SHP:1,2009-03-02T02:06:00Z,30.0600,-84.2910,5.39,1111122 
COMPS,ioos:station:USF.COMPS:SHP:1,2009-03-02T02:12:00Z,30.0600,-84.2910,5.37,1111122 
COMPS,ioos:station:USF.COMPS:SHP:1,2009-03-02T02:18:00Z,30.0600,-84.2910,5.36,1111122 
COMPS,ioos:station:USF.COMPS:SHP:1,2009-03-02T02:24:00Z,30.0600,-84.2910,5.42,1111122 
COMPS,ioos:station:USF.COMPS:SHP:1,2009-03-02T02:30:00Z,30.0600,-84.2910,5.28,1111122 
COMPS,ioos:station:USF.COMPS:SHP:1,2009-03-02T02:36:00Z,30.0600,-84.2910,5.11,1111122 
COMPS,ioos:station:USF.COMPS:SHP:1,2009-03-02T02:42:00Z,30.0600,-84.2910,5.03,1111122 
COMPS,ioos:station:USF.COMPS:SHP:1,2009-03-02T02:48:00Z,30.0600,-84.2910,4.95,1111122 
COMPS,ioos:station:USF.COMPS:SHP:1,2009-03-02T02:54:00Z,30.0600,-84.2910,4.9,1111122 
COMPS,ioos:station:USF.COMPS:SHP:1,2009-03-02T03:00:00Z,30.0600,-84.2910,4.81,1111122 
COMPS,ioos:station:USF.COMPS:SHP:1,2009-03-02T03:06:00Z,30.0600,-84.2910,4.83,1111122 
COMPS,ioos:station:USF.COMPS:SHP:1,2009-03-02T03:12:00Z,30.0600,-84.2910,4.86,1111122 
COMPS,ioos:station:USF.COMPS:SHP:1,2009-03-02T03:18:00Z,30.0600,-84.2910,4.93,1111122 